Metropolis, IL

6:15 PM CDT on October 22, 2019 (GMT -0500)
Metropolis

Weather History for KM30 - September, 2019

Change the Weather History Date:

Saturday, September 21, 2019

  Actual Average (KPAH) Record (KPAH)
Temperature  
Mean Temperature 76 °F -  
Max Temperature 88 °F 78 °F 98 °F (1940)
Min Temperature 64 °F 56 °F 38 °F (1991)
Cooling Degree Days 11    
Growing Degree Days 26 (Base 50)    
Moisture  
Dew Point 63 °F    
Average Humidity 67    
Maximum Humidity 97    
Minimum Humidity 37    
Precipitation  
Precipitation 0.00 in - - ()
Sea Level Pressure  
Sea Level Pressure 30.17 in    
Wind  
Wind Speed 2 mph (South)    
Max Wind Speed 12 mph    
Max Gust Speed 21 mph    
Visibility 6 miles    
Events      
Averages and records for this station are not official NWS values.
T = Trace of Precipitation, MM = Missing Value Source: NWS Daily Summary

Daily Weather History Graph

Daily Weather History Graph

Search for Another Location

Airport or City:

Astronomy

Sep. 21, 2019 Rise Set
Actual Time 6:41 AM CDT 6:53 PM CDT
Civil Twilight 6:15 AM CDT 7:19 PM CDT
Nautical Twilight 5:45 AM CDT 7:50 PM CDT
Astronomical Twilight 5:14 AM CDT 8:20 PM CDT
Moon 11:40 PM CDT (9/21) 1:39 PM CDT (9/21)
Length of Visible Light 13h 03m
Length of Day
12h 11m
Waning Gibbous, 54% of the Moon is Illuminated
Sep 21
Waning Gibbous
Sep 21
Last Quarter
Sep 28
New
Oct 5
First Quarter
Oct 13
Full

Hourly Weather History & Observations

Time (CDT) Temp. Heat Index Dew Point Humidity Pressure Visibility Wind Dir Wind Speed Gust Speed Precip Events Conditions
12:35 AM 70.5 °F - 69.6 °F 97% 30.17 in 5.0 mi Calm Calm - N/A   Clear
12:55 AM 69.6 °F - 68.7 °F 97% 30.17 in 7.0 mi Calm Calm - N/A   Clear
1:15 AM 69.3 °F - 68.4 °F 97% 30.17 in 7.0 mi Calm Calm - N/A   Clear
1:35 AM 68.9 °F - 68.0 °F 97% 30.17 in 5.0 mi Calm Calm - N/A   Clear
1:55 AM 67.6 °F - 66.0 °F 95% 30.17 in 10.0 mi Calm Calm - N/A   Clear
2:15 AM 67.8 °F - 66.6 °F 96% 30.17 in 10.0 mi Calm Calm - N/A   Clear
2:35 AM 66.6 °F - 64.9 °F 95% 30.17 in 10.0 mi Calm Calm - N/A   Clear
2:55 AM 67.6 °F - 65.1 °F 92% 30.17 in 10.0 mi Calm Calm - N/A   Clear
3:35 AM 69.4 °F - 64.4 °F 84% 30.17 in 10.0 mi Calm Calm - N/A   Clear
3:55 AM 70.0 °F - 64.4 °F 82% 30.17 in 10.0 mi Calm Calm - N/A   Clear
4:15 AM 69.4 °F - 64.2 °F 83% 30.18 in 10.0 mi Calm Calm - N/A   Clear
4:35 AM 68.0 °F - 63.9 °F 87% 30.18 in 10.0 mi Calm Calm - N/A   Clear
4:55 AM 66.9 °F - 63.5 °F 89% 30.18 in 10.0 mi Calm Calm - N/A   Clear
5:15 AM 65.1 °F - 62.8 °F 92% 30.19 in 10.0 mi Calm Calm - N/A   Clear
5:35 AM 64.2 °F - 62.6 °F 94% 30.20 in 10.0 mi Calm Calm - N/A   Clear
5:55 AM 64.2 °F - 63.0 °F 96% 30.21 in 10.0 mi Calm Calm - N/A   Clear
6:10 AM 65.3 °F - 63.5 °F 94% 30.21 in 10.0 mi Calm Calm - N/A   Clear
6:35 AM 64.6 °F - 63.1 °F 95% 30.22 in 5.0 mi Calm Calm - N/A   Clear
6:55 AM 65.1 °F - 63.3 °F 94% 30.22 in 5.0 mi Calm Calm - N/A   Clear
7:15 AM 67.3 °F - 63.7 °F 88% 30.22 in 7.0 mi Calm Calm - N/A   Clear
7:35 AM 67.3 °F - 64.4 °F 90% 30.23 in 5.0 mi Calm Calm - N/A   Clear
7:55 AM 70.0 °F - 65.3 °F 85% 30.23 in 7.0 mi Calm Calm - N/A   Clear
8:15 AM 71.8 °F - 65.3 °F 80% 30.24 in 7.0 mi SSE 3.5 mph - N/A   Clear
8:35 AM 73.4 °F - 65.3 °F 76% 30.24 in 7.0 mi SSE 3.5 mph - N/A   Clear
8:55 AM 74.7 °F - 65.3 °F 73% 30.24 in 7.0 mi South 4.6 mph - N/A   Clear
9:15 AM 76.3 °F - 64.6 °F 67% 30.24 in 7.0 mi South 6.9 mph - N/A   Clear
9:35 AM 77.9 °F - 63.5 °F 61% 30.24 in 7.0 mi South 5.8 mph - N/A   Clear
9:55 AM 79.7 °F - 62.6 °F 56% 30.24 in 7.0 mi South 9.2 mph - N/A   Clear
10:15 AM 80.1 °F 81.1 °F 61.7 °F 53% 30.24 in 7.0 mi SSW 10.4 mph - N/A   Clear
10:35 AM 81.0 °F 81.7 °F 61.0 °F 50% 30.24 in 7.0 mi SSW 9.2 mph - N/A   Clear
10:55 AM 82.6 °F 83.2 °F 61.9 °F 49% 30.23 in 7.0 mi SSW 8.1 mph - N/A   Clear
11:15 AM 82.2 °F 82.7 °F 60.6 °F 48% 30.23 in 7.0 mi South 9.2 mph 16.1 mph N/A   Clear
11:35 AM 84.2 °F 84.6 °F 61.3 °F 46% 30.22 in 7.0 mi SSW 11.5 mph - N/A   Clear
11:55 AM 85.1 °F 85.7 °F 62.2 °F 46% 30.21 in 4.0 mi South 6.9 mph - N/A   Haze
12:15 PM 85.6 °F 86.1 °F 61.9 °F 45% 30.20 in 3.0 mi SSW 10.4 mph - N/A   Haze
12:35 PM 86.7 °F 87.0 °F 61.5 °F 43% 30.19 in 4.0 mi South 10.4 mph 19.6 mph N/A   Haze
12:55 PM 87.1 °F 87.0 °F 60.8 °F 41% 30.19 in 5.0 mi SSW 11.5 mph 17.3 mph N/A   Haze
1:15 PM 86.9 °F 86.7 °F 60.4 °F 41% 30.18 in 4.0 mi SSW 8.1 mph - N/A   Haze
1:35 PM 87.4 °F 87.7 °F 61.9 °F 42% 30.17 in 4.0 mi SSW 10.4 mph - N/A   Haze
1:55 PM 88.3 °F 87.8 °F 60.1 °F 38% 30.17 in 5.0 mi SW 11.5 mph 20.7 mph N/A   Haze
2:15 PM 88.3 °F 88.1 °F 60.8 °F 39% 30.16 in 4.0 mi SSW 5.8 mph - N/A   Haze
2:35 PM 88.5 °F 88.3 °F 60.4 °F 39% 30.15 in 5.0 mi South 6.9 mph - N/A   Haze
2:55 PM 88.5 °F 88.3 °F 60.4 °F 39% 30.14 in 2.5 mi South 10.4 mph 16.1 mph N/A   Haze
3:15 PM 88.2 °F 87.6 °F 59.9 °F 38% 30.13 in 4.0 mi South 6.9 mph 16.1 mph N/A   Haze
3:35 PM 88.5 °F 87.8 °F 59.4 °F 37% 30.13 in 4.0 mi South 8.1 mph - N/A   Haze
3:55 PM 86.5 °F 85.9 °F 58.6 °F 39% 30.13 in 5.0 mi SSW 8.1 mph - N/A   Haze
4:15 PM 88.2 °F 87.6 °F 59.5 °F 38% 30.12 in 4.0 mi South 10.4 mph - N/A   Haze
4:35 PM 87.8 °F 86.9 °F 58.8 °F 37% 30.12 in 4.0 mi South 8.1 mph - N/A   Haze
4:55 PM 86.0 °F 85.2 °F 58.6 °F 39% 30.12 in 5.0 mi SSW 6.9 mph - N/A   Haze
5:15 PM 85.6 °F 85.0 °F 58.8 °F 40% 30.12 in 4.0 mi South 4.6 mph - N/A   Haze
5:55 PM 84.9 °F 84.4 °F 58.8 °F 41% 30.11 in 4.0 mi South 4.6 mph - N/A   Haze
6:15 PM 83.7 °F 83.4 °F 59.0 °F 43% 30.11 in 5.0 mi South 4.6 mph - N/A   Haze
6:35 PM 82.2 °F 82.4 °F 59.7 °F 46% 30.11 in 5.0 mi South 3.5 mph - N/A   Haze
6:55 PM 79.2 °F - 60.6 °F 53% 30.11 in 5.0 mi Calm Calm - N/A   Haze
7:15 PM 75.7 °F - 62.4 °F 63% 30.11 in 5.0 mi Calm Calm - N/A   Haze
7:35 PM 73.8 °F - 62.1 °F 67% 30.11 in 5.0 mi Calm Calm - N/A   Haze
7:55 PM 73.4 °F - 62.1 °F 68% 30.12 in 7.0 mi Calm Calm - N/A   Clear
8:15 PM 71.2 °F - 62.8 °F 75% 30.12 in 5.0 mi Calm Calm - N/A   Haze
8:55 PM 70.7 °F - 62.8 °F 76% 30.14 in 5.0 mi Calm Calm - N/A   Haze
9:15 PM 68.7 °F - 62.6 °F 81% 30.13 in 5.0 mi Calm Calm - N/A   Haze
9:35 PM 68.9 °F - 63.0 °F 81% 30.13 in 7.0 mi Calm Calm - N/A   Clear
9:55 PM 68.5 °F - 63.0 °F 82% 30.13 in 5.0 mi Calm Calm - N/A   Haze
10:15 PM 68.5 °F - 62.4 °F 81% 30.13 in 5.0 mi Calm Calm - N/A   Haze
10:55 PM 68.4 °F - 61.5 °F 79% 30.12 in 7.0 mi Calm Calm - N/A   Clear
11:15 PM 71.6 °F - 60.6 °F 68% 30.12 in 7.0 mi Calm Calm - N/A   Clear
11:35 PM 71.6 °F - 60.4 °F 68% 30.13 in 5.0 mi Calm Calm - N/A   Haze
11:55 PM 71.8 °F - 60.3 °F 67% 30.12 in 7.0 mi SSE 3.5 mph - N/A   Clear